Location: Beaver Pond
(44.0424°N, 71.7933°W)
Time: 09:26:05
(UTC+00:00)

Okean-O - Pass Details

Date: 13 April 2024
Orbit: 633 x 635 km, 98.0° (Epoch: 26 May)

Event Time Altitude Azimuth Distance (km) Brightness Sun altitude
Exits shadow 23:52:03 - 109° (ESE) 2,383 4.8 -4.7°
Reaches altitude 10° 23:53:23 10° 97° (E) 2,023 4.6 -4.9°
Maximum altitude 23:55:54 15° 62° (ENE) 1,704 4.4 -5.4°
Drops below altitude 10° 23:58:26 10° 27° (NNE) 2,031 5.1 -5.8°
Sets 00:01:26 0° 4° (N) 2,945 6.2 -6.3°
